Information on these data can be found in provided Readme document
Contact Info: Zachary Fasnacht (zachary.fasnacht@ssaihq.com); Nickolay Krotkov (nickolay.a.krotkov@nasa.gov); Lok Lamsal (lok.lamsal@nasa.gov)

FillValue: -999.
ScaleFactor: 1e15
Units: molecules/cm^2

Date(yyyy-mm-dd),City,Country,LonCenter,LatCenter,BoundingCoordinates,Median,Q1,Q3,Mean,Baseline_Median,Baseline_Q1,Baseline_Q3,Baseline_Mean,NumGoodSamples,NumTotalSamples
2015-01-01,Surabaya,Indonesia,112.7425,-7.2653,[112.2425 -7.7653 113.2425 -6.7653],1.652,0.91,2.808,1.88,1.664,0.945,2.366,1.796,87.0,516.0
2015-01-02,Surabaya,Indonesia,112.7425,-7.2653,[112.2425 -7.7653 113.2425 -6.7653],1.596,0.763,2.758,1.813,1.667,0.891,2.336,1.778,86.0,536.0
2015-01-03,Surabaya,Indonesia,112.7425,-7.2653,[112.2425 -7.7653 113.2425 -6.7653],1.585,0.933,2.571,1.766,1.636,0.927,2.362,1.755,104.0,504.0
2015-01-04,Surabaya,Indonesia,112.7425,-7.2653,[112.2425 -7.7653 113.2425 -6.7653],1.585,0.933,2.571,1.766,1.63,0.912,2.375,1.751,104.0,531.0
2015-01-05,Surabaya,Indonesia,112.7425,-7.2653,[112.2425 -7.7653 113.2425 -6.7653],1.585,0.933,2.571,1.766,1.633,0.911,2.376,1.739,104.0,505.0
2015-01-06,Surabaya,Indonesia,112.7425,-7.2653,[112.2425 -7.7653 113.2425 -6.7653],1.585,0.933,2.571,1.766,1.676,0.916,2.39,1.802,104.0,525.0
2015-01-07,Surabaya,Indonesia,112.7425,-7.2653,[112.2425 -7.7653 113.2425 -6.7653],1.487,0.763,2.378,1.552,1.611,0.875,2.271,1.745,93.0,513.0
2015-01-08,Surabaya,Indonesia,112.7425,-7.2653,[112.2425 -7.7653 113.2425 -6.7653],1.487,0.763,2.378,1.556,1.588,0.901,2.244,1.705,94.0,514.0
2015-01-09,Surabaya,Indonesia,112.7425,-7.2653,[112.2425 -7.7653 113.2425 -6.7653],1.487,0.91,2.312,1.535,1.617,0.924,2.257,1.713,106.0,523.0
2015-01-10,Surabaya,Indonesia,112.7425,-7.2653,[112.2425 -7.7653 113.2425 -6.7653],1.487,0.91,2.312,1.535,1.611,0.924,2.238,1.691,106.0,472.0
2015-01-11,Surabaya,Indonesia,112.7425,-7.2653,[112.2425 -7.7653 113.2425 -6.7653],1.487,0.91,2.312,1.535,1.603,0.927,2.31,1.726,106.0,494.0
2015-01-12,Surabaya,Indonesia,112.7425,-7.2653,[112.2425 -7.7653 113.2425 -6.7653],1.483,0.91,2.321,1.534,1.59,0.88,2.291,1.715,97.0,473.0
2015-01-13,Surabaya,Indonesia,112.7425,-7.2653,[112.2425 -7.7653 113.2425 -6.7653],1.525,0.933,2.378,1.602,1.6,0.902,2.303,1.748,94.0,505.0
2015-01-14,Surabaya,Indonesia,112.7425,-7.2653,[112.2425 -7.7653 113.2425 -6.7653],1.511,0.947,2.372,1.595,1.557,0.875,2.354,1.75,77.0,488.0
2015-01-15,Surabaya,Indonesia,112.7425,-7.2653,[112.2425 -7.7653 113.2425 -6.7653],1.492,0.933,2.321,1.527,1.568,0.874,2.353,1.735,81.0,499.0
2015-01-16,Surabaya,Indonesia,112.7425,-7.2653,[112.2425 -7.7653 113.2425 -6.7653],1.511,0.947,2.398,1.558,1.492,0.865,2.403,1.734,77.0,503.0
2015-01-17,Surabaya,Indonesia,112.7425,-7.2653,[112.2425 -7.7653 113.2425 -6.7653],1.779,0.986,2.43,1.733,1.561,0.897,2.413,1.785,89.0,487.0
2015-01-18,Surabaya,Indonesia,112.7425,-7.2653,[112.2425 -7.7653 113.2425 -6.7653],1.846,0.786,2.6,1.711,1.572,0.892,2.376,1.795,86.0,508.0
2015-01-19,Surabaya,Indonesia,112.7425,-7.2653,[112.2425 -7.7653 113.2425 -6.7653],1.846,0.695,2.567,1.706,1.582,0.908,2.516,1.817,89.0,476.0
2015-01-20,Surabaya,Indonesia,112.7425,-7.2653,[112.2425 -7.7653 113.2425 -6.7653],1.846,0.695,2.567,1.706,1.574,0.897,2.518,1.823,89.0,508.0
2015-01-21,Surabaya,Indonesia,112.7425,-7.2653,[112.2425 -7.7653 113.2425 -6.7653],1.596,0.434,2.529,1.576,1.525,0.785,2.381,1.699,96.0,485.0
2015-01-22,Surabaya,Indonesia,112.7425,-7.2653,[112.2425 -7.7653 113.2425 -6.7653],1.596,0.434,2.547,1.574,1.511,0.784,2.427,1.702,121.0,507.0
2015-01-23,Surabaya,Indonesia,112.7425,-7.2653,[112.2425 -7.7653 113.2425 -6.7653],1.596,0.434,2.547,1.565,1.578,0.755,2.524,1.73,119.0,494.0
2015-01-24,Surabaya,Indonesia,112.7425,-7.2653,[112.2425 -7.7653 113.2425 -6.7653],1.596,0.341,2.515,1.522,1.607,0.774,2.516,1.747,99.0,495.0
2015-01-25,Surabaya,Indonesia,112.7425,-7.2653,[112.2425 -7.7653 113.2425 -6.7653],1.596,0.342,2.515,1.524,1.607,0.775,2.529,1.748,104.0,533.0
2015-01-26,Surabaya,Indonesia,112.7425,-7.2653,[112.2425 -7.7653 113.2425 -6.7653],1.697,0.452,2.402,1.541,1.651,0.709,2.296,1.633,115.0,509.0
2015-01-27,Surabaya,Indonesia,112.7425,-7.2653,[112.2425 -7.7653 113.2425 -6.7653],1.697,0.452,2.402,1.541,1.614,0.722,2.265,1.625,115.0,530.0
2015-01-28,Surabaya,Indonesia,112.7425,-7.2653,[112.2425 -7.7653 113.2425 -6.7653],1.596,0.651,2.143,1.491,1.581,0.788,2.175,1.553,130.0,509.0
2015-01-29,Surabaya,Indonesia,112.7425,-7.2653,[112.2425 -7.7653 113.2425 -6.7653],1.58,0.651,2.195,1.52,1.602,0.772,2.172,1.566,143.0,540.0
2015-01-30,Surabaya,Indonesia,112.7425,-7.2653,[112.2425 -7.7653 113.2425 -6.7653],1.536,0.835,2.046,1.517,1.574,0.826,2.15,1.586,129.0,520.0
2015-01-31,Surabaya,Indonesia,112.7425,-7.2653,[112.2425 -7.7653 113.2425 -6.7653],1.58,0.835,2.183,1.573,1.598,0.827,2.17,1.604,142.0,528.0
2015-02-01,Surabaya,Indonesia,112.7425,-7.2653,[112.2425 -7.7653 113.2425 -6.7653],1.427,0.651,1.944,1.446,1.537,0.722,2.158,1.567,133.0,532.0
2015-02-02,Surabaya,Indonesia,112.7425,-7.2653,[112.2425 -7.7653 113.2425 -6.7653],1.403,0.63,1.819,1.418,1.548,0.753,2.122,1.577,125.0,514.0
2015-02-03,Surabaya,Indonesia,112.7425,-7.2653,[112.2425 -7.7653 113.2425 -6.7653],1.427,0.63,1.836,1.472,1.541,0.714,2.131,1.556,135.0,536.0
2015-02-04,Surabaya,Indonesia,112.7425,-7.2653,[112.2425 -7.7653 113.2425 -6.7653],1.431,0.784,1.98,1.578,1.534,0.76,2.191,1.586,140.0,506.0
2015-02-05,Surabaya,Indonesia,112.7425,-7.2653,[112.2425 -7.7653 113.2425 -6.7653],1.536,0.957,2.045,1.659,1.585,0.826,2.171,1.617,133.0,539.0
2015-02-06,Surabaya,Indonesia,112.7425,-7.2653,[112.2425 -7.7653 113.2425 -6.7653],1.573,1.038,2.007,1.694,1.638,0.839,2.244,1.638,104.0,515.0
2015-02-07,Surabaya,Indonesia,112.7425,-7.2653,[112.2425 -7.7653 113.2425 -6.7653],1.582,1.038,2.071,1.697,1.49,0.82,2.215,1.609,112.0,538.0
2015-02-08,Surabaya,Indonesia,112.7425,-7.2653,[112.2425 -7.7653 113.2425 -6.7653],1.431,0.89,2.071,1.567,1.326,0.791,2.145,1.519,128.0,525.0
2015-02-09,Surabaya,Indonesia,112.7425,-7.2653,[112.2425 -7.7653 113.2425 -6.7653],1.482,0.934,2.202,1.617,1.35,0.807,2.192,1.552,144.0,523.0
2015-02-10,Surabaya,Indonesia,112.7425,-7.2653,[112.2425 -7.7653 113.2425 -6.7653],1.427,0.843,2.29,1.623,1.367,0.802,2.27,1.597,142.0,531.0
2015-02-11,Surabaya,Indonesia,112.7425,-7.2653,[112.2425 -7.7653 113.2425 -6.7653],1.427,0.843,2.29,1.623,1.375,0.765,2.315,1.579,142.0,480.0
2015-02-12,Surabaya,Indonesia,112.7425,-7.2653,[112.2425 -7.7653 113.2425 -6.7653],1.573,0.784,2.66,1.722,1.426,0.793,2.417,1.665,126.0,499.0
2015-02-13,Surabaya,Indonesia,112.7425,-7.2653,[112.2425 -7.7653 113.2425 -6.7653],1.573,0.589,2.561,1.65,1.43,0.702,2.429,1.645,117.0,475.0
2015-02-14,Surabaya,Indonesia,112.7425,-7.2653,[112.2425 -7.7653 113.2425 -6.7653],1.573,0.552,2.561,1.65,1.437,0.682,2.415,1.632,135.0,506.0
2015-02-15,Surabaya,Indonesia,112.7425,-7.2653,[112.2425 -7.7653 113.2425 -6.7653],1.266,0.54,2.442,1.424,1.4,0.676,2.395,1.606,123.0,488.0
2015-02-16,Surabaya,Indonesia,112.7425,-7.2653,[112.2425 -7.7653 113.2425 -6.7653],1.199,0.54,2.442,1.413,1.383,0.695,2.368,1.587,123.0,497.0
2015-02-17,Surabaya,Indonesia,112.7425,-7.2653,[112.2425 -7.7653 113.2425 -6.7653],1.319,0.542,2.5,1.517,1.381,0.659,2.388,1.57,122.0,503.0
2015-02-18,Surabaya,Indonesia,112.7425,-7.2653,[112.2425 -7.7653 113.2425 -6.7653],1.199,0.534,2.5,1.435,1.334,0.666,2.381,1.571,123.0,486.0
2015-02-19,Surabaya,Indonesia,112.7425,-7.2653,[112.2425 -7.7653 113.2425 -6.7653],1.161,0.52,2.468,1.362,1.309,0.648,2.364,1.536,129.0,506.0
2015-02-20,Surabaya,Indonesia,112.7425,-7.2653,[112.2425 -7.7653 113.2425 -6.7653],1.199,0.54,2.468,1.401,1.307,0.634,2.345,1.523,133.0,473.0
2015-02-21,Surabaya,Indonesia,112.7425,-7.2653,[112.2425 -7.7653 113.2425 -6.7653],1.199,0.54,2.468,1.401,1.331,0.638,2.353,1.546,133.0,504.0
2015-02-22,Surabaya,Indonesia,112.7425,-7.2653,[112.2425 -7.7653 113.2425 -6.7653],1.196,0.54,2.468,1.395,1.3,0.608,2.365,1.532,128.0,479.0
2015-02-23,Surabaya,Indonesia,112.7425,-7.2653,[112.2425 -7.7653 113.2425 -6.7653],1.338,0.58,2.5,1.507,1.471,0.62,2.429,1.595,127.0,501.0
2015-02-24,Surabaya,Indonesia,112.7425,-7.2653,[112.2425 -7.7653 113.2425 -6.7653],1.136,0.534,2.195,1.413,1.435,0.615,2.378,1.572,107.0,490.0
2015-02-25,Surabaya,Indonesia,112.7425,-7.2653,[112.2425 -7.7653 113.2425 -6.7653],1.174,0.58,2.192,1.383,1.469,0.584,2.402,1.554,111.0,490.0
2015-02-26,Surabaya,Indonesia,112.7425,-7.2653,[112.2425 -7.7653 113.2425 -6.7653],1.174,0.58,2.192,1.382,1.443,0.559,2.302,1.558,116.0,527.0
2015-02-27,Surabaya,Indonesia,112.7425,-7.2653,[112.2425 -7.7653 113.2425 -6.7653],1.239,0.589,2.192,1.398,1.382,0.536,2.257,1.495,131.0,504.0
2015-02-28,Surabaya,Indonesia,112.7425,-7.2653,[112.2425 -7.7653 113.2425 -6.7653],1.239,0.611,2.192,1.419,1.353,0.57,2.239,1.49,127.0,525.0
2015-03-01,Surabaya,Indonesia,112.7425,-7.2653,[112.2425 -7.7653 113.2425 -6.7653],1.239,0.611,2.192,1.42,1.318,0.555,2.231,1.474,107.0,504.0
2015-03-02,Surabaya,Indonesia,112.7425,-7.2653,[112.2425 -7.7653 113.2425 -6.7653],1.503,0.865,2.261,1.603,1.379,0.575,2.236,1.482,98.0,536.0
2015-03-03,Surabaya,Indonesia,112.7425,-7.2653,[112.2425 -7.7653 113.2425 -6.7653],1.508,0.865,2.403,1.631,1.354,0.565,2.328,1.493,91.0,518.0
2015-03-04,Surabaya,Indonesia,112.7425,-7.2653,[112.2425 -7.7653 113.2425 -6.7653],1.48,0.865,2.261,1.577,1.458,0.605,2.36,1.588,95.0,528.0
2015-03-05,Surabaya,Indonesia,112.7425,-7.2653,[112.2425 -7.7653 113.2425 -6.7653],1.582,0.876,2.229,1.65,1.481,0.63,2.446,1.593,81.0,531.0
2015-03-06,Surabaya,Indonesia,112.7425,-7.2653,[112.2425 -7.7653 113.2425 -6.7653],1.503,0.876,2.223,1.573,1.473,0.624,2.377,1.57,70.0,512.0
2015-03-07,Surabaya,Indonesia,112.7425,-7.2653,[112.2425 -7.7653 113.2425 -6.7653],1.431,0.826,2.223,1.504,1.507,0.647,2.469,1.615,67.0,534.0
2015-03-08,Surabaya,Indonesia,112.7425,-7.2653,[112.2425 -7.7653 113.2425 -6.7653],1.431,0.826,2.223,1.544,1.45,0.642,2.432,1.581,70.0,503.0
2015-03-09,Surabaya,Indonesia,112.7425,-7.2653,[112.2425 -7.7653 113.2425 -6.7653],1.431,0.876,2.195,1.531,1.577,0.629,2.439,1.632,66.0,535.0
2015-03-10,Surabaya,Indonesia,112.7425,-7.2653,[112.2425 -7.7653 113.2425 -6.7653],1.304,0.82,2.223,1.536,1.579,0.657,2.598,1.657,56.0,511.0
2015-03-11,Surabaya,Indonesia,112.7425,-7.2653,[112.2425 -7.7653 113.2425 -6.7653],1.471,0.82,2.303,1.817,1.545,0.745,2.538,1.688,85.0,532.0
2015-03-12,Surabaya,Indonesia,112.7425,-7.2653,[112.2425 -7.7653 113.2425 -6.7653],1.471,0.876,2.303,1.819,1.554,0.811,2.548,1.683,79.0,519.0
2015-03-13,Surabaya,Indonesia,112.7425,-7.2653,[112.2425 -7.7653 113.2425 -6.7653],1.692,0.876,2.403,2.025,1.589,0.85,2.605,1.722,85.0,517.0
2015-03-14,Surabaya,Indonesia,112.7425,-7.2653,[112.2425 -7.7653 113.2425 -6.7653],2.0,0.829,3.125,2.256,1.615,0.813,2.736,1.742,81.0,527.0
2015-03-15,Surabaya,Indonesia,112.7425,-7.2653,[112.2425 -7.7653 113.2425 -6.7653],2.0,0.829,3.125,2.256,1.561,0.699,2.72,1.713,81.0,478.0
2015-03-16,Surabaya,Indonesia,112.7425,-7.2653,[112.2425 -7.7653 113.2425 -6.7653],2.0,0.829,3.125,2.256,1.705,0.758,2.817,1.826,81.0,499.0
2015-03-17,Surabaya,Indonesia,112.7425,-7.2653,[112.2425 -7.7653 113.2425 -6.7653],1.692,0.743,2.303,1.89,1.675,0.766,2.689,1.791,92.0,475.0
2015-03-18,Surabaya,Indonesia,112.7425,-7.2653,[112.2425 -7.7653 113.2425 -6.7653],1.674,0.605,2.271,1.847,1.726,0.817,2.666,1.82,102.0,507.0
2015-03-19,Surabaya,Indonesia,112.7425,-7.2653,[112.2425 -7.7653 113.2425 -6.7653],1.51,0.48,2.184,1.723,1.659,0.713,2.555,1.758,106.0,488.0
2015-03-20,Surabaya,Indonesia,112.7425,-7.2653,[112.2425 -7.7653 113.2425 -6.7653],1.51,0.48,2.242,1.802,1.586,0.652,2.468,1.725,132.0,497.0
2015-03-21,Surabaya,Indonesia,112.7425,-7.2653,[112.2425 -7.7653 113.2425 -6.7653],1.674,0.605,2.548,1.876,1.687,0.741,2.644,1.805,144.0,504.0
2015-03-22,Surabaya,Indonesia,112.7425,-7.2653,[112.2425 -7.7653 113.2425 -6.7653],1.573,0.577,2.497,1.813,1.583,0.681,2.493,1.795,163.0,488.0
2015-03-23,Surabaya,Indonesia,112.7425,-7.2653,[112.2425 -7.7653 113.2425 -6.7653],1.53,0.544,2.44,1.804,1.548,0.68,2.488,1.78,171.0,509.0
2015-03-24,Surabaya,Indonesia,112.7425,-7.2653,[112.2425 -7.7653 113.2425 -6.7653],1.51,0.702,2.44,1.81,1.531,0.768,2.464,1.784,188.0,477.0
2015-03-25,Surabaya,Indonesia,112.7425,-7.2653,[112.2425 -7.7653 113.2425 -6.7653],1.53,0.715,2.44,1.811,1.518,0.774,2.35,1.741,183.0,509.0
2015-03-26,Surabaya,Indonesia,112.7425,-7.2653,[112.2425 -7.7653 113.2425 -6.7653],1.569,0.733,2.446,1.76,1.503,0.772,2.333,1.712,157.0,485.0
2015-03-27,Surabaya,Indonesia,112.7425,-7.2653,[112.2425 -7.7653 113.2425 -6.7653],1.569,0.715,2.572,1.779,1.437,0.725,2.327,1.697,150.0,509.0
2015-03-28,Surabaya,Indonesia,112.7425,-7.2653,[112.2425 -7.7653 113.2425 -6.7653],1.53,0.577,2.446,1.695,1.476,0.725,2.336,1.709,150.0,494.0
2015-03-29,Surabaya,Indonesia,112.7425,-7.2653,[112.2425 -7.7653 113.2425 -6.7653],1.569,0.715,2.44,1.701,1.454,0.784,2.298,1.697,163.0,490.0
2015-03-30,Surabaya,Indonesia,112.7425,-7.2653,[112.2425 -7.7653 113.2425 -6.7653],1.569,0.715,2.44,1.698,1.469,0.804,2.34,1.729,164.0,528.0
2015-03-31,Surabaya,Indonesia,112.7425,-7.2653,[112.2425 -7.7653 113.2425 -6.7653],1.569,0.715,2.44,1.698,1.446,0.776,2.317,1.665,164.0,508.0
2015-04-01,Surabaya,Indonesia,112.7425,-7.2653,[112.2425 -7.7653 113.2425 -6.7653],1.569,0.739,2.574,1.785,1.427,0.79,2.353,1.708,150.0,531.0
2015-04-02,Surabaya,Indonesia,112.7425,-7.2653,[112.2425 -7.7653 113.2425 -6.7653],1.874,0.917,2.926,2.015,1.517,0.816,2.405,1.764,155.0,504.0
2015-04-03,Surabaya,Indonesia,112.7425,-7.2653,[112.2425 -7.7653 113.2425 -6.7653],2.051,0.964,2.954,2.169,1.568,0.791,2.462,1.816,154.0,535.0
2015-04-04,Surabaya,Indonesia,112.7425,-7.2653,[112.2425 -7.7653 113.2425 -6.7653],2.051,0.964,3.018,2.105,1.582,0.807,2.544,1.837,130.0,518.0
2015-04-05,Surabaya,Indonesia,112.7425,-7.2653,[112.2425 -7.7653 113.2425 -6.7653],2.051,0.964,2.926,2.077,1.577,0.778,2.479,1.799,127.0,525.0
2015-04-06,Surabaya,Indonesia,112.7425,-7.2653,[112.2425 -7.7653 113.2425 -6.7653],2.152,1.062,3.021,2.177,1.606,0.835,2.512,1.799,115.0,529.0
2015-04-07,Surabaya,Indonesia,112.7425,-7.2653,[112.2425 -7.7653 113.2425 -6.7653],2.092,0.964,3.021,2.079,1.628,0.831,2.554,1.804,119.0,513.0
2015-04-08,Surabaya,Indonesia,112.7425,-7.2653,[112.2425 -7.7653 113.2425 -6.7653],2.152,0.991,3.099,2.117,1.623,0.792,2.548,1.803,107.0,534.0
2015-04-09,Surabaya,Indonesia,112.7425,-7.2653,[112.2425 -7.7653 113.2425 -6.7653],2.152,0.991,3.099,2.144,1.669,0.762,2.64,1.857,113.0,502.0
2015-04-10,Surabaya,Indonesia,112.7425,-7.2653,[112.2425 -7.7653 113.2425 -6.7653],2.152,0.963,3.124,2.143,1.662,0.746,2.628,1.826,109.0,534.0
2015-04-11,Surabaya,Indonesia,112.7425,-7.2653,[112.2425 -7.7653 113.2425 -6.7653],2.094,1.059,3.124,2.15,1.74,0.81,2.694,1.892,121.0,509.0
2015-04-12,Surabaya,Indonesia,112.7425,-7.2653,[112.2425 -7.7653 113.2425 -6.7653],2.125,1.104,3.392,2.278,1.713,0.718,2.761,1.882,134.0,536.0
2015-04-13,Surabaya,Indonesia,112.7425,-7.2653,[112.2425 -7.7653 113.2425 -6.7653],2.152,1.113,3.392,2.298,1.697,0.696,2.825,1.853,115.0,527.0
2015-04-14,Surabaya,Indonesia,112.7425,-7.2653,[112.2425 -7.7653 113.2425 -6.7653],2.152,1.113,3.392,2.307,1.697,0.734,2.787,1.875,115.0,524.0
2015-04-15,Surabaya,Indonesia,112.7425,-7.2653,[112.2425 -7.7653 113.2425 -6.7653],2.152,1.17,3.392,2.331,1.736,0.725,2.891,1.915,132.0,528.0
2015-04-16,Surabaya,Indonesia,112.7425,-7.2653,[112.2425 -7.7653 113.2425 -6.7653],2.152,1.17,3.392,2.331,1.74,0.686,2.85,1.885,132.0,477.0
2015-04-17,Surabaya,Indonesia,112.7425,-7.2653,[112.2425 -7.7653 113.2425 -6.7653],1.966,1.059,3.428,2.197,1.688,0.636,2.867,1.829,117.0,500.0
2015-04-18,Surabaya,Indonesia,112.7425,-7.2653,[112.2425 -7.7653 113.2425 -6.7653],1.941,1.059,3.321,2.116,1.64,0.635,2.798,1.743,104.0,479.0
2015-04-19,Surabaya,Indonesia,112.7425,-7.2653,[112.2425 -7.7653 113.2425 -6.7653],1.966,1.059,3.428,2.163,1.619,0.637,2.768,1.779,109.0,510.0
2015-04-20,Surabaya,Indonesia,112.7425,-7.2653,[112.2425 -7.7653 113.2425 -6.7653],1.653,1.05,3.321,2.096,1.523,0.676,2.799,1.787,103.0,494.0
2015-04-21,Surabaya,Indonesia,112.7425,-7.2653,[112.2425 -7.7653 113.2425 -6.7653],1.653,1.05,3.428,2.103,1.513,0.575,2.716,1.726,95.0,502.0
2015-04-22,Surabaya,Indonesia,112.7425,-7.2653,[112.2425 -7.7653 113.2425 -6.7653],2.033,1.113,3.428,2.318,1.569,0.567,2.717,1.768,82.0,505.0
2015-04-23,Surabaya,Indonesia,112.7425,-7.2653,[112.2425 -7.7653 113.2425 -6.7653],1.966,1.11,3.428,2.248,1.602,0.664,2.641,1.779,86.0,486.0
2015-04-24,Surabaya,Indonesia,112.7425,-7.2653,[112.2425 -7.7653 113.2425 -6.7653],2.094,1.21,3.428,2.292,1.648,0.71,2.763,1.839,88.0,506.0
2015-04-25,Surabaya,Indonesia,112.7425,-7.2653,[112.2425 -7.7653 113.2425 -6.7653],2.094,1.21,3.566,2.335,1.645,0.777,2.819,1.888,90.0,474.0
2015-04-26,Surabaya,Indonesia,112.7425,-7.2653,[112.2425 -7.7653 113.2425 -6.7653],2.381,1.078,3.75,2.398,1.644,0.773,2.76,1.885,78.0,506.0
2015-04-27,Surabaya,Indonesia,112.7425,-7.2653,[112.2425 -7.7653 113.2425 -6.7653],2.381,1.078,3.566,2.176,1.634,0.793,2.752,1.94,54.0,485.0
2015-04-28,Surabaya,Indonesia,112.7425,-7.2653,[112.2425 -7.7653 113.2425 -6.7653],2.112,1.078,3.826,2.316,1.626,0.86,2.806,1.988,71.0,507.0
2015-04-29,Surabaya,Indonesia,112.7425,-7.2653,[112.2425 -7.7653 113.2425 -6.7653],1.637,0.892,3.201,1.865,1.617,0.81,2.746,1.934,90.0,498.0
2015-04-30,Surabaya,Indonesia,112.7425,-7.2653,[112.2425 -7.7653 113.2425 -6.7653],1.745,0.892,2.859,1.805,1.678,0.758,2.76,1.926,97.0,499.0
2015-05-01,Surabaya,Indonesia,112.7425,-7.2653,[112.2425 -7.7653 113.2425 -6.7653],1.677,0.42,2.621,1.723,1.694,0.763,2.756,1.963,127.0,538.0
2015-05-02,Surabaya,Indonesia,112.7425,-7.2653,[112.2425 -7.7653 113.2425 -6.7653],1.72,0.933,2.438,1.735,1.744,0.825,2.735,1.959,146.0,510.0
2015-05-03,Surabaya,Indonesia,112.7425,-7.2653,[112.2425 -7.7653 113.2425 -6.7653],1.72,0.933,2.438,1.735,1.717,0.873,2.694,1.969,146.0,531.0
2015-05-04,Surabaya,Indonesia,112.7425,-7.2653,[112.2425 -7.7653 113.2425 -6.7653],1.648,0.715,2.253,1.618,1.724,0.842,2.674,1.938,159.0,511.0
2015-05-05,Surabaya,Indonesia,112.7425,-7.2653,[112.2425 -7.7653 113.2425 -6.7653],1.677,0.744,2.253,1.66,1.698,0.845,2.693,1.944,169.0,541.0
2015-05-06,Surabaya,Indonesia,112.7425,-7.2653,[112.2425 -7.7653 113.2425 -6.7653],1.7,0.752,2.335,1.66,1.715,0.898,2.773,1.99,172.0,524.0
2015-05-07,Surabaya,Indonesia,112.7425,-7.2653,[112.2425 -7.7653 113.2425 -6.7653],1.637,0.661,2.392,1.592,1.71,0.866,2.754,1.935,198.0,533.0
2015-05-08,Surabaya,Indonesia,112.7425,-7.2653,[112.2425 -7.7653 113.2425 -6.7653],1.637,0.661,2.392,1.602,1.688,0.853,2.729,1.913,202.0,538.0
2015-05-09,Surabaya,Indonesia,112.7425,-7.2653,[112.2425 -7.7653 113.2425 -6.7653],1.648,0.752,2.404,1.635,1.683,0.885,2.661,1.888,210.0,521.0
2015-05-10,Surabaya,Indonesia,112.7425,-7.2653,[112.2425 -7.7653 113.2425 -6.7653],1.637,0.752,2.404,1.603,1.72,0.893,2.683,1.908,224.0,543.0
2015-05-11,Surabaya,Indonesia,112.7425,-7.2653,[112.2425 -7.7653 113.2425 -6.7653],1.648,0.892,2.404,1.633,1.721,0.917,2.681,1.903,244.0,512.0
2015-05-12,Surabaya,Indonesia,112.7425,-7.2653,[112.2425 -7.7653 113.2425 -6.7653],1.648,0.892,2.404,1.633,1.666,0.889,2.626,1.832,244.0,540.0
2015-05-13,Surabaya,Indonesia,112.7425,-7.2653,[112.2425 -7.7653 113.2425 -6.7653],1.677,0.916,2.404,1.62,1.716,0.901,2.639,1.846,243.0,521.0
2015-05-14,Surabaya,Indonesia,112.7425,-7.2653,[112.2425 -7.7653 113.2425 -6.7653],1.73,0.921,2.485,1.71,1.737,0.919,2.678,1.884,258.0,541.0
2015-05-15,Surabaya,Indonesia,112.7425,-7.2653,[112.2425 -7.7653 113.2425 -6.7653],1.72,0.922,2.43,1.68,1.745,0.957,2.635,1.853,254.0,532.0
2015-05-16,Surabaya,Indonesia,112.7425,-7.2653,[112.2425 -7.7653 113.2425 -6.7653],1.72,0.922,2.465,1.668,1.728,0.944,2.632,1.818,251.0,529.0
2015-05-17,Surabaya,Indonesia,112.7425,-7.2653,[112.2425 -7.7653 113.2425 -6.7653],1.73,0.905,2.616,1.752,1.7,0.958,2.621,1.844,257.0,548.0
2015-05-18,Surabaya,Indonesia,112.7425,-7.2653,[112.2425 -7.7653 113.2425 -6.7653],1.73,0.905,2.616,1.752,1.69,0.96,2.626,1.842,257.0,496.0
2015-05-19,Surabaya,Indonesia,112.7425,-7.2653,[112.2425 -7.7653 113.2425 -6.7653],1.892,1.01,2.719,1.852,1.763,0.975,2.674,1.894,237.0,514.0
2015-05-20,Surabaya,Indonesia,112.7425,-7.2653,[112.2425 -7.7653 113.2425 -6.7653],1.858,0.938,2.719,1.819,1.737,0.941,2.652,1.867,245.0,494.0
2015-05-21,Surabaya,Indonesia,112.7425,-7.2653,[112.2425 -7.7653 113.2425 -6.7653],1.858,0.938,2.727,1.826,1.728,0.898,2.647,1.863,257.0,523.0
2015-05-22,Surabaya,Indonesia,112.7425,-7.2653,[112.2425 -7.7653 113.2425 -6.7653],1.858,0.943,2.727,1.842,1.796,0.917,2.659,1.893,247.0,505.0
2015-05-23,Surabaya,Indonesia,112.7425,-7.2653,[112.2425 -7.7653 113.2425 -6.7653],1.866,1.01,2.781,1.891,1.775,0.949,2.692,1.918,263.0,515.0
2015-05-24,Surabaya,Indonesia,112.7425,-7.2653,[112.2425 -7.7653 113.2425 -6.7653],1.843,0.938,2.749,1.842,1.74,0.916,2.715,1.899,256.0,520.0
2015-05-25,Surabaya,Indonesia,112.7425,-7.2653,[112.2425 -7.7653 113.2425 -6.7653],1.823,0.892,2.776,1.818,1.719,0.889,2.706,1.89,257.0,502.0
2015-05-26,Surabaya,Indonesia,112.7425,-7.2653,[112.2425 -7.7653 113.2425 -6.7653],1.798,0.741,2.785,1.803,1.687,0.832,2.768,1.869,245.0,522.0
2015-05-27,Surabaya,Indonesia,112.7425,-7.2653,[112.2425 -7.7653 113.2425 -6.7653],1.827,0.931,2.781,1.833,1.745,0.9,2.808,1.889,262.0,490.0
2015-05-28,Surabaya,Indonesia,112.7425,-7.2653,[112.2425 -7.7653 113.2425 -6.7653],1.714,0.905,2.781,1.827,1.676,0.851,2.743,1.855,241.0,516.0
2015-05-29,Surabaya,Indonesia,112.7425,-7.2653,[112.2425 -7.7653 113.2425 -6.7653],1.639,0.943,2.659,1.787,1.722,0.836,2.737,1.852,225.0,495.0
2015-05-30,Surabaya,Indonesia,112.7425,-7.2653,[112.2425 -7.7653 113.2425 -6.7653],1.664,0.931,2.678,1.786,1.718,0.818,2.795,1.879,233.0,514.0
2015-05-31,Surabaya,Indonesia,112.7425,-7.2653,[112.2425 -7.7653 113.2425 -6.7653],1.714,0.943,2.575,1.818,1.675,0.832,2.702,1.878,211.0,504.0
2015-06-01,Surabaya,Indonesia,112.7425,-7.2653,[112.2425 -7.7653 113.2425 -6.7653],1.714,0.964,2.564,1.803,1.631,0.846,2.635,1.862,208.0,500.0
2015-06-02,Surabaya,Indonesia,112.7425,-7.2653,[112.2425 -7.7653 113.2425 -6.7653],1.753,0.964,2.577,1.816,1.64,0.837,2.733,1.869,218.0,539.0
2015-06-03,Surabaya,Indonesia,112.7425,-7.2653,[112.2425 -7.7653 113.2425 -6.7653],1.825,0.978,2.823,1.92,1.627,0.812,2.631,1.818,235.0,514.0
2015-06-04,Surabaya,Indonesia,112.7425,-7.2653,[112.2425 -7.7653 113.2425 -6.7653],1.896,1.08,2.9,1.961,1.623,0.847,2.635,1.836,214.0,533.0
2015-06-05,Surabaya,Indonesia,112.7425,-7.2653,[112.2425 -7.7653 113.2425 -6.7653],1.996,1.105,2.9,2.01,1.668,0.892,2.642,1.843,222.0,512.0
2015-06-06,Surabaya,Indonesia,112.7425,-7.2653,[112.2425 -7.7653 113.2425 -6.7653],2.027,1.179,2.976,2.088,1.652,0.909,2.643,1.838,220.0,544.0
2015-06-07,Surabaya,Indonesia,112.7425,-7.2653,[112.2425 -7.7653 113.2425 -6.7653],1.972,1.136,2.755,1.973,1.65,0.891,2.55,1.828,210.0,526.0
2015-06-08,Surabaya,Indonesia,112.7425,-7.2653,[112.2425 -7.7653 113.2425 -6.7653],1.985,1.136,2.863,2.028,1.663,0.884,2.547,1.829,233.0,536.0
2015-06-09,Surabaya,Indonesia,112.7425,-7.2653,[112.2425 -7.7653 113.2425 -6.7653],2.015,1.237,2.991,2.149,1.627,0.898,2.541,1.815,233.0,539.0
2015-06-10,Surabaya,Indonesia,112.7425,-7.2653,[112.2425 -7.7653 113.2425 -6.7653],2.042,1.278,2.991,2.181,1.666,0.914,2.568,1.817,244.0,522.0
2015-06-11,Surabaya,Indonesia,112.7425,-7.2653,[112.2425 -7.7653 113.2425 -6.7653],2.173,1.237,2.991,2.167,1.688,0.888,2.561,1.805,244.0,543.0
2015-06-12,Surabaya,Indonesia,112.7425,-7.2653,[112.2425 -7.7653 113.2425 -6.7653],2.1,1.276,2.976,2.145,1.65,0.891,2.549,1.803,263.0,512.0
2015-06-13,Surabaya,Indonesia,112.7425,-7.2653,[112.2425 -7.7653 113.2425 -6.7653],2.177,1.237,2.991,2.207,1.663,0.872,2.573,1.814,244.0,541.0
2015-06-14,Surabaya,Indonesia,112.7425,-7.2653,[112.2425 -7.7653 113.2425 -6.7653],2.1,1.237,2.975,2.164,1.651,0.899,2.554,1.797,233.0,520.0
2015-06-15,Surabaya,Indonesia,112.7425,-7.2653,[112.2425 -7.7653 113.2425 -6.7653],2.142,1.278,2.991,2.211,1.724,0.89,2.614,1.803,262.0,540.0